743  
ASUS41 KPHI 220610  
RWRPHI  
 
REGIONAL WEATHER ROUNDUP  
NATIONAL WEATHER SERVICE MOUNT HOLLY NJ  
200 AM EDT WED OCT 22 2014  
 
NOTE: "FAIR" INDICATES FEW OR NO CLOUDS BELOW 12,000 FEET WITH NO  
SIGNIFICANT WEATHER AND/OR S TO VISIBILITY
.  
 
* = STATION DOES NOT REPORT PRECIPITATION (E.G. RAIN, SNOW, ETC.)  
OR FOG.
 
 
NJZ015>026-220700-  
SOUTHERN NEW JERSEY  
 
CITY SKY/WX TMP DP RH WIND PRES REMARKS
 
POMONA CLOUDY 55 54 96 N9 29.82F  
6HR MIN TEMP: 49; 6HR MAX TEMP: 56; 6HR PCP: TRACE;  
 
RIO GRANDE* CLOUDY 57 52 82 NW8 29.82F  
MILLVILLE LGT RAIN 57 54 89 NE7 29.83F  
WRIGHTSTOWN CLOUDY 54 53 97 N7 29.84F  
MOUNT HOLLY CLOUDY 55 51 86 N6 29.86F  
TRENTON CLOUDY 54 49 83 N8 29.87F  
6HR MIN TEMP: 54; 6HR MAX TEMP: 59;  
 

 
NJZ001>014-220700-  
NORTHERN NEW JERSEY  
 
CITY SKY/WX TMP DP RH WIND PRES REMARKS
 
SUSSEX CLOUDY 56 50 80 NE8 29.93S  
ANDOVER* N/A 52 51 97 VRB7 29.91F  
MORRISTOWN CLOUDY 54 50 87 CALM 29.90F  
NEWARK MOCLDY 55 53 93 N12 29.89F  
TETERBORO MOCLDY 56 52 86 N6 29.89F  
CALDWELL CLOUDY 53 50 89 NE3 29.90F  
SOMERVILLE MOCLDY 52 49 89 N6 29.88F  
ALLAIRE* CLOUDY 57 52 82 N7 29.85F  
TOMS RIVER* CLOUDY 55 54 94 N3 29.85S  
 

 
PAZ043-044-047-054-055-060>062-066>071-220700-  
EASTERN PENNSYLVANIA  
 
CITY SKY/WX TMP DP RH WIND PRES REMARKS
 
PHILADELPHIA CLOUDY 58 51 78 NE15 29.86F  
6HR MIN TEMP: 58; 6HR MAX TEMP: 65;  
 
NORTH PHILA CLOUDY 57 49 74 N13 29.87F  
BLUE BELL CLOUDY 54 52 94 N3 29.87S  
DOYLESTOWN CLOUDY 51 51 100 N7 29.88F  
QUAKERTOWN* CLOUDY 50 48 93 N6 29.90S  
POTTSTOWN CLOUDY 53 49 86 N7 29.90S  
LANCASTER LGT RAIN 54 49 83 N8 29.88F  
COATESVILLE CLOUDY 54 50 87 N5 29.88F  
READING CLOUDY 55 49 80 N9 29.89S  
6HR MIN TEMP: 54; 6HR MAX TEMP: 58;  
 
ALLENTOWN MOCLDY 52 48 87 NE8 29.91R  
6HR MIN TEMP: 48; 6HR MAX TEMP: 60; 6HR PCP: TRACE;  
 
MOUNT POCONO CLOUDY 49 46 90 NE10 29.92S  
6HR MIN TEMP: 49; 6HR MAX TEMP: 51;  
 
HAZLETON CLOUDY 50 48 93 N5 29.94S  
WILKES BARRE CLOUDY 52 49 89 N3 29.93S  
 

 
DEZALL-MDZ008-012-015-019-020-220700-  
DELAWARE AND EASTERN MARYLAND  
 
CITY SKY/WX TMP DP RH WIND PRES REMARKS
 
WILMINGTON CLOUDY 55 51 86 N8 29.86F  
6HR MIN TEMP: 55; 6HR MAX TEMP: 59;  
 
DOVER LGT RAIN 56 56 100 NW8 29.81F  
GEORGETOWN CLOUDY 56 54 93 N5 29.82F  
6HR MIN TEMP: 55; 6HR MAX TEMP: 60; 6HR PCP: 0.51;  
 
EASTON LGT RAIN 56 56 100 NW7 29.88S  
PATUXENT CLOUDY 56 52 86 N13 29.84S  
OCEAN CITY CLOUDY 56 54 93 N7 29.80F  
WALLOPS ISLAND CLOUDY 56 54 93 N7 29.81F  
CAMBRIDGE CLOUDY 55 52 88 N9 29.83F  
SALISBURY CLOUDY 57 54 89 N3 29.82F  
 

 
PAZ001-021-NYZ056-072-MDZ011-DCZ001-220700-  
OTHER NEARBY LOCATIONS  
 
CITY SKY/WX TMP DP RH WIND PRES REMARKS
 
HARRISBURG CLOUDY 54 48 80 NW8 29.89F  
STATE COLLEGE CLOUDY 49 47 92 N5 29.95F  
WILLIAMSPORT CLOUDY 52 46 80 W6 29.94F  
BINGHAMTON CLOUDY 49 47 93 N8 29.97S  
NEW YORK CITY CLOUDY 57 52 83 E6 29.92F  
BALTIMORE CLOUDY 53 51 93 NW5 29.86F  
WASHINGTON DC LGT RAIN 55 50 83 NW9 29.88F  
 

 
 
CLICK HERE TO GO TO PREVIOUS BULLETINS.

The Nexlab PA Page
The Nexlab NJ Page
The Nexlab DE Page
The Nexlab MD Page Main Text Page